Content
SEND FEEDBACK

Daily
Averages
Monthly
Summary
South Korea

PYONGT'AEK, SOUTH KOREA


Home > Asia > South Korea
Elevation: 46 feet     Latitude: 36 57N     Longitude: 127 02E

WEATHER
 
SELECT A DAY
Number of Records: 132,187;   Date Range: 8/1/96 - 7/20/14
 
SHARE

PRINT THIS DATA

[ ← Previous Day ]
WEATHER ALMANAC - FEBRUARY 13, 2013
[ Next Day → ]
[ °C ]   °F
Weather ElementAverageHighLow
Temperature24.6 °F36 °F (3:00 pm)16.2 °F (6:55 am)
Dewpoint21.2 °F29.5 °F (8:55 pm)9 °F (3:00 pm)
Humidity87.9 %100 % (12:23 am)19 % (3:00 pm)
Barometer30.37 in30.42 in (9:00 am)30.33 in (3:00 pm)
Wind Speed1.4 mph8.9 mph (3:00 pm)
Weather ElementAverage
Visibility5.3 mi
Wind DirectionENE (64.1 °)

Weather ElementTotal
Precipitation---
Heating Degree Days38.9 (Base 65)
Averaged from 50 records on February 13, 2013
WEATHER CONDITIONS BREAKOUT
WIND DIRECTION BREAKOUT
WEATHER BY HOUR - FEBRUARY 13, 2013
[ °C ]   °F
Local TimeTemperatureDewpointHumidityBarometerVisibilityWind DirectionWind SpeedGust SpeedPrecipitationEventsConditions
12:23 AM21.2 °F21.2 °F100 %30.34 in5.0 miCalmClear
12:33 AM21.2 °F21.2 °F100 %30.34 in5.0 miCalmClear
12:55 AM21.0 °F21.0 °F100 %30.34 in4.0 miCalmClear
1:20 AM19.4 °F19.4 °F100 %30.34 in4.0 miCalmMostly Cloudy
1:55 AM21.4 °F21.4 °F100 %30.35 in6.0 miCalmMostly Cloudy
2:34 AM21.2 °F21.2 °F100 %30.35 in6.0 miCalmScattered Clouds
2:40 AM21.2 °F21.2 °F100 %30.36 in6.0 miCalmMostly Cloudy
2:55 AM20.7 °F20.7 °F100 %30.36 in5.0 miCalmMostly Cloudy
3:00 AM21.0 °F18.0 °F81 %30.36 in°2.2 mph
3:38 AM19.4 °F19.4 °F100 %30.35 in4.0 miSE (130°)3.5 mphScattered Clouds
3:55 AM20.3 °F20.3 °F100 %30.35 in4.0 miEast (100°)3.5 mphPartly Cloudy
4:19 AM19.4 °F19.4 °F100 %30.36 in4.0 miSE (130°)4.6 mphPartly Cloudy
4:55 AM20.1 °F20.1 °F100 %30.37 in4.0 miCalmClear
5:55 AM18.9 °F18.9 °F100 %30.38 in4.0 miCalmClear
6:00 AM22.0 °F18.0 °F78 %30.37 inEast (90°)1.2 mph
6:27 AM17.6 °F17.6 °F100 %30.38 in3.0 miCalmClear
6:34 AM17.6 °F17.6 °F100 %30.38 in3.0 miCalmClear
6:55 AM16.2 °F16.2 °F100 %30.38 in4.0 miCalmPartly Cloudy
7:12 AM17.6 °F17.6 °F100 %30.38 in2.5 miCalmPartly Cloudy
7:16 AM17.6 °F17.6 °F100 %30.38 in2.0 miCalmPartly Cloudy
7:51 AM17.6 °F17.6 °F100 %30.39 in1.8 miCalmClear
7:55 AM17.1 °F17.1 °F100 %30.39 in1.8 miCalmClear
8:00 AM17.6 °F17.6 °F100 %30.39 in2.0 miCalmClear
8:19 AM19.4 °F19.4 °F100 %30.39 in1.8 miCalmClear
8:24 AM19.4 °F19.4 °F100 %30.40 in1.5 miCalmClear
8:42 AM21.2 °F21.2 °F100 %30.40 in1.8 miCalmClear
8:55 AM21.6 °F21.6 °F100 %30.41 in1.8 miCalmClear
9:00 AM24.0 °F18.0 °F70 %30.42 inENE (70°)1.2 mph
9:05 AM23.0 °F23.0 °F100 %30.40 in2.0 miCalmClear
9:17 AM24.8 °F24.8 °F100 %30.40 in2.5 miCalmClear
9:29 AM24.8 °F24.8 °F100 %30.40 in3.0 miSE (130°)3.5 mphClear
9:55 AM26.4 °F26.4 °F100 %30.40 in3.0 miSE (140°)3.5 mphClear
10:55 AM29.5 °F29.1 °F99 %30.41 in9.0 miSouth (170°)3.5 mphClear
11:55 AM32.7 °F26.6 °F78 %30.39 in10.0 miSSE (150°)3.5 mphClear
12:00 PM33.0 °F13.0 °F29 %30.40 inWest (270°)2.3 mph
12:55 PM34.0 °F22.3 °F62 %30.39 in10.0 miCalmClear
1:55 PM35.1 °F23.2 °F62 %30.37 in10.0 miCalmClear
2:55 PM35.8 °F23.5 °F61 %30.35 in10.0 miWSW (250°)3.5 mphClear
3:00 PM36.0 °F9.0 °F19 %30.33 inSSW (200°)8.9 mph
3:55 PM36.0 °F23.9 °F62 %30.33 in10.0 miCalmClear
4:55 PM35.4 °F25.9 °F68 %30.34 in10.0 miWNW (290°)6.9 mphClear
5:55 PM32.7 °F29.1 °F87 %30.36 in10.0 miNW (320°)5.8 mphClear
6:00 PM33.0 °F11.0 °F26 %30.34 inWNW (290°)4.6 mph
6:55 PM32.2 °F27.3 °F82 %30.37 in10.0 miNW (320°)3.5 mphClear
7:55 PM32.0 °F27.0 °F82 %30.35 in10.0 miCalmScattered Clouds
8:55 PM29.7 °F29.5 °F99 %30.34 in9.0 miCalmClear
9:00 PM26.0 °F15.0 °F51 %30.35 inEast (90°)6.7 mph
9:55 PM29.5 °F29.1 °F99 %30.34 in8.0 miCalmClear
10:55 PM27.5 °F27.5 °F100 %30.36 in6.0 miCalmClear
11:55 PM27.3 °F27.3 °F100 %30.37 in6.0 miCalmClear
Hourly data recorded from RKSG, located miles away from Pyongt'aek, South Korea







STORIES FROM OUR PARTNERS